{"data":{"norad_id":62738,"intl_designator":"2025-014D","name":"STARLINK-32802","alt_names":[],"object_type":"PAYLOAD","status":"ACTIVE","operator":null,"country":"US","launch_date":"2025-01-21","launch_site_code":"AFETR","launch_vehicle":null,"mission":null,"orbit_class":"UNKNOWN","rcs_meters":null,"size_class":null,"mass_kg":null,"dimensions":null,"purposes":["comms"],"wikipedia_slug":null,"has_3d_model":false,"image_url":null,"decayed_at":null,"tle_current":{"epoch":"2026-09-21T00:19:44.263200Z","epoch_age_seconds":126978,"freshness":"FRESH","line1":"1 62738U 25014D   26264.01370675  .00008699  00000+0  32522-3 0  9995","line2":"2 62738  43.0018 130.9569 0000850 269.2785  90.7969 15.27584692 93134","mean_motion":15.27584692,"eccentricity":8.5e-5,"inclination_deg":43.0018,"raan_deg":130.9569,"arg_perigee_deg":269.2785,"mean_anomaly_deg":90.7969,"bstar":0.00032522,"rev_number":9313,"period_min":94.266459171875,"perigee_km":482.45184691572,"apogee_km":483.61824616363,"semimajor_km":6861.1720465397,"source":"CELESTRAK","updated_at":"2026-09-22T09:00:49.656348Z"}}}